Vorticity
8 4 3 5 4 8 6 3 3 3 5 8 3 2 2 1 1 11 21 13 13 7 31 2 -2 21 34 34 19 16 23 14 46 -11 32 2 2 41 2 8 -2 20 -0 6 -18 32 13
7 7 6 7 6 5 4 4 4 2 6 9 5 3 2 1 4 7 31 10 12 10 30 -10 -1 2 45 40 18 14 16 15 32 -11 14 1 3 7 30 3 -22 15 5 10 -9 50 -4
7 6 6 4 5 4 5 5 5 3 6 9 4 3 2 4 3 8 33 10 11 10 21 -0 -5 0 12 41 15 21 25 27 -19 58 -25 16 -2 19 13 9 12 -1 18 14 -11 27 23
4 6 7 5 6 4 4 5 5 5 9 4 3 5 2 1 2 8 28 8 11 9 25 21 11 -7 20 17 43 32 33 19 -2 37 -22 31 17 5 9 -9 19 1 31 -3 13 -31 31
6 5 6 6 8 3 4 4 5 5 8 7 4 2 3 2 0 8 23 17 12 12 8 40 6 0 17 1 4 59 41 25 1 24 -2 -4 7 6 15 23 -21 5 31 -27 19 27 2
4 5 7 6 5 4 4 5 6 4 8 9 3 3 3 2 2 9 27 18 13 5 -1 20 40 9 -0 19 16 95 17 48 29 15 -32 12 24 14 -12 15 -0 -22 6 3 9 42 8
7 6 7 6 5 6 3 6 8 1 7 10 4 4 2 3 1 8 27 21 14 4 3 -0 46 19 5 17 4 94 -25 28 -1 33 -13 6 23 1 19 13 20 2 -18 20 -16 -9 29
6 5 6 7 6 5 4 7 8 2 5 8 4 3 3 3 1 7 28 26 9 6 -5 8 44 13 9 6 7 120 -21 8 14 3 33 -1 -8 34 25 3 13 17 -7 -3 9 -32 0
8 5 5 7 6 6 7 5 6 3 7 5 3 3 3 3 1 9 26 24 8 11 2 8 40 25 30 2 40 90 -19 -10 11 12 16 24 -5 8 24 5 7 17 25 1 3 0 1
9 7 6 7 6 7 6 6 5 3 4 6 3 3 3 4 5 4 18 29 12 11 3 10 36 11 39 27 31 49 -5 -15 8 -16 4 32 4 27 16 8 2 12 0 12 2 11 6
9 6 6 5 5 7 6 9 4 3 5 6 3 5 2 2 2 5 14 46 19 9 11 10 12 10 13 48 14 40 10 -20 -19 -2 -6 1 14 6 16 22 7 7 3 33 -7 6 17
8 1 4 5 4 7 6 9 3 2 6 1 3 5 2 2 2 3 12 51 17 7 14 12 9 17 18 24 -5 24 4 20 -12 -8 21 18 9 11 5 22 15 13 14 8 16 7 3
7 5 4 5 5 6 8 9 3 4 5 2 4 5 4 2 3 3 6 23 27 12 23 -3 14 8 9 16 23 17 10 11 5 -4 4 4 7 14 12 9 13 11 0 5 1 4 8
8 5 -2 5 6 5 9 8 4 2 5 7 2 6 5 2 4 2 7 23 36 17 8 1 19 9 25 19 16 17 14 -8 -5 9 -10 9 -1 7 8 13 15 13 16 7 7 9 2
10 4 -5 4 6 6 9 5 4 1 5 4 3 7 4 1 5 -0 9 22 36 22 20 0 2 12 20 11 6 0 12 14 1 7 9 8 7 13 -5 4 8 3 15 15 8 7 6
9 3 7 -2 6 7 9 6 2 5 5 3 5 8 3 2 5 0 8 13 43 44 4 7 -0 17 10 16 -4 -5 14 9 13 13 -0 13 19 14 13 16 8 10 3 13 10 6 5
12 3 3 -2 8 8 9 5 1 3 4 -0 6 8 5 3 5 4 5 6 27 44 13 13 4 1 22 14 0 1 -4 7 7 19 9 7 10 15 19 4 15 15 10 7 10 10 5
17 5 -0 -4 9 6 8 6 3 3 5 6 5 6 7 3 7 3 3 3 22 31 40 1 9 2 5 21 17 2 7 -6 -4 4 18 10 2 10 12 15 11 16 6 6 11 6 7
6 12 -2 -2 -7 9 4 12 4 6 5 8 7 0 4 3 5 3 1 3 10 32 42 12 3 10 7 6 10 17 21 4 0 3 -2 10 11 5 8 12 12 9 7 4 6 8 7
14 7 6 -4 4 7 3 8 5 4 7 9 6 1 2 2 5 3 1 6 6 26 33 45 7 3 9 7 5 3 11 7 10 10 6 2 3 0 5 6 7 7 9 9 9 8 7
10 -12 18 -17 9 21 3 2 2 6 4 10 8 5 1 -0 5 3 0 1 6 17 33 37 29 5 4 10 8 6 2 23 13 10 18 13 2 2 3 10 12 11 10 10 9 10 11
14 -13 4 5 6 14 5 3 -0 9 3 3 6 2 2 4 4 3 3 3 7 8 31 32 32 20 8 4 6 10 10 2 12 7 -1 5 7 10 11 8 9 6 3 5 7 6 4
4 -0 -5 14 -7 16 3 17 -5 3 4 3 11 6 4 8 4 4 5 5 6 11 17 30 34 32 11 7 8 6 9 13 12 8 2 -1 -5 6 8 5 7 6 3 3 3 2 5
4 0 1 -0 3 -0 9 -7 22 4 2 9 -0 3 9 10 4 6 3 7 4 7 11 23 26 40 20 12 8 10 6 8 8 11 35 -7 15 16 10 11 7 5 13 15 14 13 13
1 -1 4 6 8 -3 0 25 -1 4 5 2 6 10 8 9 5 7 3 3 3 7 10 18 25 26 32 16 11 9 8 6 6 10 10 11 11 11 12 10 11 8 5 8 9 10 11
4 -10 4 2 4 7 7 8 22 7 7 7 9 10 7 5 6 8 6 4 -0 5 9 5 25 30 26 19 16 12 12 11 8 6 5 10 10 10 10 8 6 5 8 9 10 8 8
12 -20 9 21 -2 4 13 17 -3 -1 4 3 6 10 9 5 5 9 5 5 2 1 11 8 13 27 29 15 14 11 11 11 13 8 9 6 8 9 10 10 12 14 12 10 7 7 9
21 -32 2 18 6 3 1 -3 16 -9 -2 2 6 8 9 6 6 8 7 6 -0 0 9 8 6 18 31 26 15 12 9 9 12 12 12 10 7 6 6 8 10 7 9 12 12 11 12
13 -19 8 25 6 8 3 8 2 4 -6 6 2 10 9 10 7 6 6 6 6 -0 8 6 9 15 26 23 24 16 4 10 10 12 12 14 12 13 11 9 15 13 12 12 13 11 11
Height
5805 5802 5799 5797 5791 5787 5780 5774 5768 5760 5752 5743 5733 5723 5710 5695 5681 5664 5648 5638 5624 5614 5602 5591 5578 5569 5562 5560 5563 5567 5573 5581 5589 5605 5616 5628 5640 5655 5666 5684 5687 5701 5711 5718 5731 5734 5742
5800 5795 5793 5791 5788 5782 5776 5769 5764 5757 5747 5739 5729 5719 5707 5693 5678 5661 5646 5635 5623 5612 5602 5592 5582 5573 5564 5561 5563 5566 5572 5580 5586 5599 5614 5626 5640 5651 5664 5673 5681 5695 5705 5715 5726 5729 5735
5792 5791 5786 5784 5781 5778 5771 5765 5760 5753 5744 5735 5726 5716 5703 5690 5674 5659 5644 5634 5622 5611 5601 5592 5585 5576 5569 5564 5563 5565 5570 5578 5585 5598 5614 5625 5634 5642 5658 5671 5678 5692 5701 5711 5720 5726 5728
5786 5786 5782 5778 5775 5772 5767 5759 5756 5749 5741 5732 5723 5712 5700 5687 5673 5658 5643 5633 5622 5610 5599 5591 5585 5578 5572 5565 5562 5563 5567 5574 5586 5594 5615 5624 5633 5646 5654 5667 5677 5687 5695 5706 5716 5711 5720
5779 5778 5776 5774 5770 5767 5762 5757 5751 5746 5737 5729 5721 5710 5698 5684 5671 5656 5643 5633 5621 5610 5599 5590 5584 5579 5573 5567 5565 5564 5566 5575 5586 5598 5613 5623 5635 5644 5654 5666 5675 5683 5689 5699 5705 5711 5720
5773 5772 5770 5769 5765 5763 5757 5753 5747 5741 5734 5726 5718 5708 5696 5683 5670 5655 5642 5632 5621 5611 5600 5589 5582 5580 5575 5573 5569 5566 5569 5576 5592 5605 5617 5623 5633 5643 5653 5661 5668 5678 5687 5696 5703 5710 5716
5766 5765 5765 5761 5761 5758 5754 5748 5744 5737 5731 5724 5716 5706 5694 5682 5669 5655 5642 5631 5623 5614 5602 5592 5582 5576 5573 5570 5571 5572 5572 5579 5593 5606 5616 5623 5633 5642 5655 5666 5674 5681 5688 5696 5700 5704 5712
5762 5759 5758 5756 5755 5753 5749 5745 5740 5735 5729 5721 5713 5704 5692 5681 5669 5655 5643 5632 5622 5615 5605 5594 5583 5577 5574 5571 5571 5575 5580 5588 5595 5608 5618 5629 5636 5643 5651 5660 5667 5674 5683 5692 5695 5703 5709
5753 5752 5752 5750 5749 5748 5744 5741 5737 5731 5726 5719 5711 5702 5692 5680 5668 5656 5645 5634 5623 5617 5611 5599 5587 5580 5576 5574 5571 5575 5587 5592 5602 5615 5623 5631 5639 5645 5652 5661 5669 5676 5683 5689 5696 5701 5706
5745 5746 5745 5744 5743 5742 5739 5736 5732 5727 5723 5716 5709 5700 5690 5679 5669 5657 5646 5635 5626 5620 5614 5606 5594 5586 5581 5578 5579 5584 5595 5603 5609 5618 5625 5635 5642 5648 5654 5662 5669 5675 5682 5688 5696 5702 5707
5736 5739 5738 5737 5737 5735 5734 5731 5728 5724 5719 5714 5707 5698 5690 5678 5668 5659 5648 5636 5628 5622 5618 5612 5602 5596 5591 5590 5591 5595 5603 5609 5617 5623 5631 5638 5644 5650 5655 5660 5666 5673 5682 5688 5694 5699 5702
5726 5729 5732 5731 5731 5730 5728 5727 5723 5719 5716 5711 5705 5697 5689 5678 5668 5659 5647 5637 5631 5627 5621 5617 5610 5605 5603 5603 5604 5608 5612 5618 5622 5628 5634 5639 5645 5650 5656 5660 5667 5674 5680 5687 5691 5695 5700
5714 5719 5724 5724 5724 5724 5722 5721 5718 5715 5712 5708 5703 5695 5687 5677 5668 5658 5648 5638 5634 5628 5625 5622 5616 5613 5611 5612 5612 5616 5621 5625 5630 5634 5639 5643 5647 5652 5656 5660 5665 5671 5677 5683 5689 5692 5697
5702 5709 5713 5716 5716 5718 5716 5716 5713 5711 5708 5704 5700 5693 5686 5677 5667 5658 5649 5640 5633 5629 5626 5625 5622 5619 5618 5619 5620 5623 5626 5631 5635 5639 5643 5646 5649 5652 5656 5660 5666 5671 5676 5681 5685 5689 5692
5686 5698 5703 5706 5708 5710 5710 5710 5708 5706 5704 5700 5696 5690 5684 5677 5668 5659 5650 5640 5633 5629 5628 5627 5627 5624 5623 5625 5628 5629 5631 5635 5638 5640 5644 5646 5648 5651 5655 5660 5665 5668 5672 5676 5680 5683 5688
5670 5683 5691 5696 5700 5702 5703 5704 5702 5701 5699 5697 5693 5688 5682 5675 5668 5660 5650 5642 5633 5629 5628 5628 5628 5628 5628 5629 5632 5634 5636 5638 5640 5642 5644 5646 5649 5652 5655 5659 5662 5666 5670 5674 5678 5682 5687
5661 5671 5679 5685 5690 5694 5696 5697 5697 5696 5695 5693 5690 5686 5680 5674 5668 5659 5650 5642 5634 5628 5628 5627 5627 5628 5630 5632 5633 5636 5639 5640 5641 5643 5645 5647 5649 5651 5654 5657 5660 5664 5667 5671 5675 5678 5681
5645 5654 5667 5675 5680 5686 5689 5690 5691 5690 5690 5689 5686 5683 5677 5672 5667 5659 5650 5642 5634 5627 5625 5625 5626 5629 5630 5631 5632 5635 5638 5640 5641 5643 5645 5647 5648 5650 5652 5655 5658 5662 5665 5668 5670 5675 5678
5632 5643 5657 5665 5671 5677 5681 5683 5684 5685 5685 5684 5681 5679 5674 5670 5665 5659 5650 5643 5634 5626 5622 5622 5625 5627 5628 5630 5632 5633 5635 5638 5639 5642 5644 5646 5647 5649 5651 5654 5656 5659 5663 5666 5668 5670 5673
5618 5628 5644 5653 5660 5667 5673 5675 5677 5679 5680 5679 5677 5674 5671 5667 5663 5657 5650 5644 5635 5626 5621 5620 5621 5622 5624 5626 5629 5631 5633 5635 5637 5640 5642 5644 5646 5648 5650 5652 5654 5657 5659 5661 5662 5663 5669
5607 5616 5634 5642 5650 5657 5664 5668 5670 5672 5674 5674 5671 5669 5667 5664 5660 5655 5649 5643 5635 5627 5621 5616 5617 5620 5622 5623 5626 5628 5630 5632 5634 5637 5639 5641 5643 5645 5647 5650 5652 5654 5656 5657 5658 5663 5661
5596 5610 5623 5635 5642 5649 5655 5660 5662 5666 5668 5668 5666 5664 5662 5660 5656 5653 5648 5642 5634 5627 5621 5616 5613 5614 5616 5618 5622 5624 5627 5629 5631 5634 5636 5639 5641 5643 5644 5646 5647 5650 5652 5655 5656 5658 5657
5591 5603 5618 5627 5635 5642 5647 5652 5655 5659 5662 5662 5661 5660 5658 5656 5653 5650 5645 5640 5634 5627 5620 5613 5610 5610 5611 5615 5618 5621 5623 5625 5627 5629 5632 5635 5636 5638 5639 5641 5643 5646 5649 5650 5651 5652 5654
5578 5594 5608 5619 5628 5635 5640 5646 5649 5651 5656 5656 5656 5656 5654 5652 5650 5647 5642 5639 5632 5627 5620 5613 5608 5606 5609 5610 5613 5617 5619 5621 5624 5625 5627 5630 5632 5634 5636 5638 5640 5643 5644 5645 5646 5646 5647
5567 5579 5592 5609 5620 5628 5635 5639 5644 5646 5649 5651 5651 5651 5649 5647 5646 5643 5640 5637 5631 5626 5619 5612 5608 5605 5604 5606 5609 5611 5614 5617 5620 5622 5624 5625 5627 5629 5631 5633 5635 5637 5639 5639 5639 5640 5640
5566 5579 5588 5598 5612 5621 5627 5633 5637 5640 5643 5645 5646 5646 5645 5644 5642 5639 5636 5633 5630 5624 5619 5613 5607 5602 5600 5602 5604 5607 5610 5612 5615 5617 5619 5621 5622 5624 5626 5627 5628 5628 5632 5632 5632 5631 5634
5562 5574 5584 5594 5605 5614 5620 5626 5631 5634 5636 5639 5641 5641 5640 5639 5638 5636 5633 5631 5627 5623 5619 5612 5607 5602 5599 5598 5600 5603 5605 5608 5610 5613 5615 5615 5617 5618 5620 5620 5622 5623 5624 5625 5626 5629 5628
5548 5565 5577 5588 5598 5606 5614 5619 5624 5628 5632 5634 5635 5636 5636 5635 5634 5633 5631 5628 5625 5621 5617 5613 5608 5602 5598 5595 5597 5599 5602 5604 5606 5606 5609 5611 5611 5613 5613 5614 5615 5617 5618 5619 5619 5619 5620
5538 5554 5570 5581 5590 5599 5607 5612 5617 5621 5626 5628 5630 5631 5630 5631 5630 5629 5627 5625 5623 5620 5616 5612 5607 5601 5598 5594 5594 5596 5599 5600 5599 5601 5603 5605 5606 5608 5609 5608 5609 5610 5611 5612 5612 5612 5612